Regional Weather Roundup
Issued by NWS

Home | Current Version | Previous Version | Graphics & Text | Print | Product List | Glossary On
Versions: 1 2 3 4 5 6 7 8 9 10 11 12 13 14 15 16 17 18 19 20 21 22 23 24 25 26 27 28 29 30 31 32 33 34 35 36 37 38 39 40 41 42 43 44 45 46 47 48 49 50
000
ASUS44 KMEG 301100
RWRTN
TENNESSEE HOURLY STATE WEATHER ROUNDUP
NATIONAL WEATHER SERVICE MEMPHIS TN
600 AM CDT MON MAY 30 2016

TNZ002-004-019-021-049-052-054-088>092-301200-
WEST TENNESSEE

CITY           SKY/WX    TMP DP  RH WIND       PRES   REMARKS
MEMPHIS INTL   PTCLDY    71  67  87 CALM      30.05S
NWS MEMPHIS      N/A     67 N/A N/A MISG        N/A
JACKSON        PTCLDY    66  64  93 CALM      30.05R FOG
DYERSBURG      CLEAR     66  64  94 CALM      30.05R
UNION CITY     MOCLDY    64  64 100 CALM      30.04R VSB 0
PARIS          CLEAR     63  61  94 CALM      30.06R
LEXINGTON      CLEAR     64  64 100 CALM      30.04R
$$

TNZ008-025-027-028-033-062-065-066-301200-
NORTH MIDDLE TENNESSEE

CITY           SKY/WX    TMP DP  RH WIND       PRES   REMARKS
NASHVILLE      MOCLDY    67  64  90 CALM      30.05R
CLARKSVILLE    LGT RAIN  64  62  93 CALM      30.05R
COOKEVILLE     CLEAR     61  61 100 CALM      30.05R
CROSSVILLE     CLEAR     63  59  87 CALM      30.09S
$$

TNZ061-075-076-078-094-096-097-301200-
SOUTH MIDDLE TENNESSEE

CITY           SKY/WX    TMP DP  RH WIND       PRES   REMARKS
TULLAHOMA      CLEAR     63  63 100 CALM      30.07R
WINCHESTER     CLEAR     63  61  94 CALM      30.06R
COLUMBIA       CLEAR    N/A N/A N/A CALM      30.04R
SHELBYVILLE    CLEAR     64  64 100 CALM      30.06R
$$

TNZ017-018-042-046-047-301200-
NORTHEAST TENNESSEE

CITY           SKY/WX    TMP DP  RH WIND       PRES   REMARKS
TRI CITIES     MOCLDY    58  57  97 CALM      30.07S
$$

TNZ012-013-036-069-073-074-301200-
CENTRAL EAST TENNESSEE

CITY           SKY/WX    TMP DP  RH WIND       PRES   REMARKS
KNOXVILLE      NOT AVBL
OAK RIDGE      FOG       64  62  93 CALM      30.06S VSB 3/4
GATLINBURG     CLEAR     59  59 100 CALM      30.05R
$$

TNZ083-085-099-301200-
SOUTHEAST TENNESSEE

CITY           SKY/WX    TMP DP  RH WIND       PRES   REMARKS
CHATTANOOGA    MOCLDY    69  64  84 CALM      30.03S
$$

SKY/WX REPORTED AS FAIR MEANS FEW OR NO CLOUDS BELOW
12 THOUSAND FEET.





USA.gov is the U.S. government's official web portal to all federal, state and local government web resources and services.